GIA190 WARA-WIDD

Flight info

Callsign GIA190
Flight time N/A
Altitude 36000
Route SBR T13 RAMPY M635 SURGA T23 UGEBO
Aircraft B738/M-SDE2E3FGHIRWXY/LB1

Departure

Time 2026-05-09 03:25
Airport Abdul Rachman Saleh Airport (WARA)

Arrival

Time N/A
Airport Hang Nadim International Airport (WIDD)
Time Latitude Longitude Altitude Speed Heading
2026-05-09 03:20 -7.93676 112.71276 1692 ft 4 kts 166°
2026-05-09 03:21 -7.93712 112.71285 1693 ft 7 kts 166°
2026-05-09 03:21 -7.93767 112.71299 1697 ft 10 kts 167°
2026-05-09 03:21 -7.93828 112.71328 1695 ft 10 kts 117°
2026-05-09 03:21 -7.93822 112.71396 1695 ft 10 kts 76°
2026-05-09 03:22 -7.93805 112.71463 1698 ft 10 kts 77°
2026-05-09 03:22 -7.93790 112.71527 1698 ft 9 kts 77°
2026-05-09 03:22 -7.93776 112.71591 1697 ft 9 kts 77°
2026-05-09 03:22 -7.93791 112.71647 1697 ft 9 kts 139°
2026-05-09 03:23 -7.93850 112.71663 1696 ft 9 kts 168°
2026-05-09 03:23 -7.93906 112.71685 1696 ft 9 kts 146°
2026-05-09 03:23 -7.93956 112.71714 1695 ft 8 kts 178°
2026-05-09 03:23 -7.93950 112.71680 1695 ft 8 kts 354°
2026-05-09 03:24 -7.93903 112.71674 1693 ft 0 kts 345°
2026-05-09 03:24 -7.93894 112.71671 1696 ft 8 kts 345°
2026-05-09 03:24 -7.93614 112.71603 1697 ft 75 kts 346°
2026-05-09 03:24 -7.92892 112.71428 1694 ft 135 kts 346°
2026-05-09 03:25 -7.91826 112.71170 1826 ft 171 kts 346°
2026-05-09 03:25 -7.90641 112.70857 2329 ft 184 kts 346°
2026-05-09 03:25 -7.89352 112.70635 3006 ft 190 kts 356°
2026-05-09 03:25 -7.88017 112.70632 3784 ft 200 kts
2026-05-09 03:26 -7.86604 112.70776 4321 ft 208 kts
2026-05-09 03:26 -7.85139 112.71033 4762 ft 221 kts 10°
2026-05-09 03:26 -7.83527 112.71330 4955 ft 250 kts 11°
2026-05-09 03:26 -7.81729 112.71666 5347 ft 271 kts 11°
2026-05-09 03:27 -7.79860 112.72016 6145 ft 275 kts 11°
2026-05-09 03:27 -7.77968 112.72355 6904 ft 279 kts
2026-05-09 03:27 -7.76058 112.72583 7691 ft 281 kts
2026-05-09 03:27 -7.74106 112.72785 8462 ft 285 kts
2026-05-09 03:28 -7.72134 112.72984 9206 ft 289 kts
2026-05-09 03:28 -7.70131 112.73176 10008 ft 289 kts
2026-05-09 03:28 -7.68129 112.72842 10490 ft 303 kts 338°
2026-05-09 03:28 -7.66153 112.71885 10672 ft 327 kts 332°
2026-05-09 03:29 -7.64083 112.70761 10830 ft 349 kts 332°
2026-05-09 03:29 -7.61898 112.69571 11122 ft 363 kts 332°
2026-05-09 03:29 -7.59646 112.68369 11680 ft 368 kts 333°
2026-05-09 03:29 -7.57355 112.67177 12305 ft 371 kts 333°
2026-05-09 03:30 -7.55037 112.65996 12883 ft 375 kts 333°
2026-05-09 03:30 -7.52685 112.64816 13446 ft 380 kts 334°
2026-05-09 03:30 -7.50303 112.63633 14003 ft 383 kts 334°
2026-05-09 03:30 -7.47902 112.62448 14523 ft 386 kts 334°
2026-05-09 03:31 -7.45506 112.61269 15023 ft 389 kts 334°
2026-05-09 03:31 -7.43056 112.60067 15499 ft 393 kts 333°
2026-05-09 03:31 -7.40582 112.58854 15997 ft 396 kts 333°
2026-05-09 03:31 -7.38092 112.57634 16471 ft 400 kts 333°
2026-05-09 03:32 -7.35577 112.56401 16935 ft 404 kts 333°
2026-05-09 03:32 -7.33040 112.55159 17375 ft 408 kts 333°
2026-05-09 03:32 -7.30475 112.53902 17824 ft 411 kts 333°
2026-05-09 03:32 -7.27891 112.52636 18256 ft 415 kts 333°
2026-05-09 03:33 -7.25292 112.51363 18638 ft 417 kts 333°
2026-05-09 03:33 -7.22670 112.50079 19049 ft 419 kts 333°
2026-05-09 03:33 -7.20037 112.48790 19446 ft 421 kts 333°
2026-05-09 03:33 -7.17389 112.47493 19841 ft 424 kts 333°
2026-05-09 03:34 -7.14763 112.46208 20222 ft 427 kts 333°
2026-05-09 03:34 -7.12089 112.44899 20607 ft 429 kts 333°
2026-05-09 03:34 -7.09388 112.43577 20971 ft 431 kts 333°
2026-05-09 03:34 -7.06686 112.42255 21338 ft 434 kts 333°
2026-05-09 03:35 -7.03964 112.40923 21695 ft 436 kts 333°
2026-05-09 03:35 -7.01225 112.39583 22046 ft 439 kts 333°
2026-05-09 03:35 -6.98495 112.38248 22384 ft 441 kts 333°
2026-05-09 03:35 -6.95720 112.36891 22716 ft 444 kts 333°
2026-05-09 03:36 -6.92937 112.35530 23057 ft 446 kts 333°
2026-05-09 03:36 -6.90148 112.34166 23391 ft 448 kts 333°
2026-05-09 03:36 -6.87334 112.32790 23671 ft 450 kts 333°
2026-05-09 03:36 -6.84512 112.31411 23947 ft 452 kts 333°
2026-05-09 03:37 -6.81687 112.30030 24231 ft 453 kts 333°
2026-05-09 03:37 -6.78846 112.28642 24507 ft 454 kts 333°
2026-05-09 03:37 -6.75995 112.27249 24775 ft 456 kts 334°
2026-05-09 03:37 -6.73141 112.25855 25043 ft 457 kts 334°
2026-05-09 03:38 -6.70268 112.24451 25302 ft 459 kts 334°
2026-05-09 03:38 -6.67394 112.23048 25563 ft 460 kts 334°
2026-05-09 03:38 -6.64547 112.21657 25808 ft 462 kts 334°
2026-05-09 03:38 -6.61648 112.20241 26054 ft 463 kts 334°
2026-05-09 03:39 -6.58743 112.18823 26290 ft 465 kts 334°
2026-05-09 03:39 -6.55832 112.17402 26530 ft 466 kts 334°
2026-05-09 03:39 -6.52910 112.15976 26767 ft 468 kts 334°
2026-05-09 03:39 -6.49972 112.14542 26987 ft 469 kts 334°
2026-05-09 03:40 -6.47031 112.13107 27215 ft 471 kts 334°
2026-05-09 03:40 -6.44074 112.11664 27460 ft 471 kts 334°
2026-05-09 03:40 -6.41119 112.10222 27674 ft 473 kts 334°
2026-05-09 03:40 -6.38154 112.08776 27876 ft 475 kts 334°
2026-05-09 03:41 -6.35177 112.07324 28085 ft 476 kts 334°
2026-05-09 03:41 -6.32192 112.05868 28260 ft 478 kts 335°
2026-05-09 03:41 -6.29190 112.04405 28408 ft 480 kts 335°
2026-05-09 03:41 -6.26180 112.02937 28619 ft 481 kts 335°
2026-05-09 03:42 -6.23174 112.01472 28842 ft 481 kts 335°
2026-05-09 03:42 -6.20151 111.99998 29032 ft 483 kts 335°
2026-05-09 03:42 -6.17321 111.98619 29184 ft 484 kts 335°
2026-05-09 03:42 -6.14280 111.97137 29366 ft 485 kts 335°
2026-05-09 03:43 -6.11244 111.95657 29549 ft 486 kts 335°
2026-05-09 03:43 -6.08199 111.94174 29799 ft 485 kts 335°
2026-05-09 03:43 -6.05171 111.92699 30076 ft 484 kts 335°
2026-05-09 03:43 -6.02142 111.91223 30307 ft 483 kts 335°
2026-05-09 03:44 -5.99124 111.89753 30484 ft 484 kts 335°
2026-05-09 03:44 -5.96081 111.88271 30591 ft 486 kts 335°
2026-05-09 03:44 -5.93037 111.86789 30774 ft 486 kts 335°
2026-05-09 03:44 -5.89993 111.85307 31011 ft 485 kts 335°
2026-05-09 03:45 -5.86957 111.83829 31264 ft 484 kts 335°
2026-05-09 03:45 -5.83930 111.82356 31532 ft 483 kts 335°
2026-05-09 03:45 -5.80905 111.80884 31708 ft 484 kts 335°
2026-05-09 03:45 -5.77914 111.79429 31920 ft 483 kts 335°
2026-05-09 03:46 -5.74896 111.77960 32245 ft 481 kts 335°
2026-05-09 03:46 -5.71894 111.76500 32490 ft 480 kts 335°
2026-05-09 03:46 -5.68875 111.75031 32653 ft 481 kts 335°
2026-05-09 03:46 -5.65864 111.73567 32988 ft 479 kts 335°
2026-05-09 03:47 -5.62873 111.72112 33214 ft 479 kts 335°
2026-05-09 03:47 -5.59866 111.70650 33321 ft 482 kts 334°
2026-05-09 03:47 -5.56860 111.69189 33737 ft 477 kts 334°
2026-05-09 03:47 -5.53884 111.67742 34102 ft 473 kts 334°
2026-05-09 03:48 -5.50908 111.66295 34226 ft 476 kts 334°
2026-05-09 03:48 -5.47925 111.64846 34429 ft 475 kts 334°
2026-05-09 03:48 -5.44957 111.63404 34781 ft 471 kts 335°
2026-05-09 03:48 -5.42023 111.61977 35090 ft 468 kts 335°
2026-05-09 03:49 -5.39092 111.60553 35280 ft 468 kts 335°
2026-05-09 03:49 -5.36158 111.59127 35479 ft 468 kts 335°
2026-05-09 03:49 -5.33230 111.57705 35747 ft 466 kts 335°
2026-05-09 03:49 -5.30319 111.56291 35899 ft 466 kts 335°
2026-05-09 03:50 -5.24509 111.53474 35888 ft 465 kts 335°
2026-05-09 03:50 -5.18710 111.50658 35885 ft 462 kts 335°
2026-05-09 03:51 -5.12940 111.47856 35890 ft 459 kts 335°
2026-05-09 03:51 -5.07200 111.45069 35890 ft 458 kts 335°
2026-05-09 03:52 -5.01475 111.42291 35893 ft 457 kts 335°
2026-05-09 03:52 -4.95743 111.39508 35896 ft 458 kts 335°
2026-05-09 03:53 -4.89991 111.36719 35896 ft 460 kts 335°
2026-05-09 03:53 -4.84213 111.33917 35896 ft 462 kts 336°
2026-05-09 03:54 -4.78406 111.31100 35895 ft 464 kts 335°
2026-05-09 03:54 -4.72620 111.28294 35891 ft 466 kts 335°
2026-05-09 03:55 -4.66780 111.25464 35891 ft 467 kts 335°
2026-05-09 03:55 -4.61291 111.21998 35896 ft 470 kts 320°
2026-05-09 03:56 -4.56951 111.17072 35905 ft 472 kts 309°
2026-05-09 03:56 -4.52989 111.11804 35894 ft 473 kts 308°
2026-05-09 03:57 -4.49009 111.06543 35894 ft 473 kts 309°
2026-05-09 03:57 -4.45021 111.01341 35892 ft 473 kts 309°
2026-05-09 03:58 -4.41100 110.96254 35893 ft 473 kts 309°
2026-05-09 03:58 -4.37078 110.91039 35893 ft 473 kts 309°
2026-05-09 03:59 -4.33056 110.85822 35893 ft 472 kts 309°
2026-05-09 03:59 -4.29042 110.80615 35892 ft 472 kts 309°
2026-05-09 04:00 -4.25033 110.75415 35898 ft 471 kts 309°
2026-05-09 04:00 -4.21024 110.70216 35892 ft 471 kts 309°
2026-05-09 04:01 -4.17027 110.65033 35893 ft 470 kts 309°
2026-05-09 04:01 -4.13056 110.59886 35896 ft 469 kts 309°
2026-05-09 04:02 -4.09072 110.54723 35896 ft 468 kts 309°
2026-05-09 04:02 -4.05092 110.49564 35895 ft 468 kts 309°
2026-05-09 04:03 -4.01111 110.44405 35902 ft 467 kts 309°
2026-05-09 04:03 -3.97137 110.39257 35896 ft 467 kts 309°
2026-05-09 04:04 -3.93761 110.35045 35895 ft 466 kts 311°
2026-05-09 04:04 -3.89503 110.30134 35893 ft 467 kts 313°
2026-05-09 04:05 -3.85224 110.25238 35894 ft 468 kts 312°
2026-05-09 04:05 -3.80268 110.19499 35897 ft 469 kts 312°
2026-05-09 04:06 -3.76705 110.15347 35895 ft 470 kts 312°
2026-05-09 04:06 -3.72469 110.10405 35897 ft 471 kts 311°
2026-05-09 04:07 -3.68195 110.05422 35894 ft 471 kts 311°
2026-05-09 04:07 -3.63917 110.00437 35890 ft 472 kts 312°
2026-05-09 04:08 -3.59721 109.95548 35898 ft 472 kts 312°
2026-05-09 04:08 -3.55445 109.90567 35899 ft 471 kts 312°
2026-05-09 04:09 -3.51180 109.85599 35885 ft 470 kts 311°
2026-05-09 04:09 -3.46925 109.80644 35886 ft 468 kts 312°
2026-05-09 04:10 -3.42686 109.75708 35887 ft 467 kts 312°
2026-05-09 04:10 -3.38454 109.70781 35890 ft 466 kts 312°
2026-05-09 04:11 -3.34240 109.65876 35890 ft 465 kts 312°
2026-05-09 04:11 -3.30023 109.60968 35891 ft 464 kts 312°
2026-05-09 04:12 -3.25812 109.56068 35889 ft 464 kts 312°
2026-05-09 04:12 -3.21629 109.51201 35889 ft 465 kts 312°
2026-05-09 04:13 -3.17412 109.46294 35888 ft 465 kts 312°
2026-05-09 04:13 -3.13180 109.41372 35889 ft 466 kts 312°
2026-05-09 04:14 -3.08943 109.36444 35890 ft 468 kts 312°
2026-05-09 04:14 -3.04696 109.31505 35888 ft 469 kts 312°
2026-05-09 04:15 -3.00433 109.26547 35885 ft 470 kts 312°
2026-05-09 04:15 -2.96177 109.21598 35886 ft 471 kts 312°
2026-05-09 04:16 -2.91925 109.16654 35886 ft 471 kts 312°
2026-05-09 04:16 -2.87645 109.11683 35889 ft 471 kts 312°
2026-05-09 04:17 -2.83356 109.06728 35883 ft 470 kts 312°
2026-05-09 04:17 -2.79081 109.01792 35881 ft 468 kts 312°
2026-05-09 04:18 -2.74899 108.96960 35878 ft 467 kts 312°
2026-05-09 04:18 -2.70662 108.92063 35881 ft 465 kts 312°
2026-05-09 04:19 -2.66435 108.87177 35879 ft 463 kts 312°
2026-05-09 04:19 -2.62246 108.82337 35879 ft 462 kts 312°
2026-05-09 04:20 -2.58042 108.77480 35883 ft 462 kts 312°
2026-05-09 04:20 -2.53828 108.72611 35880 ft 463 kts 312°
2026-05-09 04:21 -2.49619 108.67749 35886 ft 463 kts 311°
2026-05-09 04:22 -2.43294 108.60426 35880 ft 464 kts 311°
2026-05-09 04:22 -2.39075 108.55533 35880 ft 465 kts 311°
2026-05-09 04:23 -2.34848 108.50632 35880 ft 465 kts 311°
2026-05-09 04:23 -2.30618 108.45728 35880 ft 465 kts 311°
2026-05-09 04:24 -2.26413 108.40854 35884 ft 465 kts 312°
2026-05-09 04:24 -2.22184 108.35953 35877 ft 465 kts 312°
2026-05-09 04:25 -2.17954 108.31051 35878 ft 465 kts 312°
2026-05-09 04:25 -2.13729 108.26155 35874 ft 465 kts 311°
2026-05-09 04:26 -2.09505 108.21258 35878 ft 465 kts 311°
2026-05-09 04:26 -2.05277 108.16360 35877 ft 465 kts 311°
2026-05-09 04:27 -2.01052 108.11461 35882 ft 465 kts 311°
2026-05-09 04:27 -1.96832 108.06562 35879 ft 466 kts 311°
2026-05-09 04:28 -1.92600 108.01648 35878 ft 466 kts 311°
2026-05-09 04:28 -1.88489 107.96876 35877 ft 467 kts 311°
2026-05-09 04:29 -1.84249 107.91955 35877 ft 467 kts 311°
2026-05-09 04:29 -1.80006 107.87031 35875 ft 467 kts 311°
2026-05-09 04:30 -1.75763 107.82107 35874 ft 467 kts 311°
2026-05-09 04:30 -1.71526 107.77190 35884 ft 467 kts 311°
2026-05-09 04:31 -1.67286 107.72269 35876 ft 467 kts 311°
2026-05-09 04:31 -1.63044 107.67348 35882 ft 467 kts 311°
2026-05-09 04:32 -1.58821 107.62449 35879 ft 468 kts 311°
2026-05-09 04:32 -1.54573 107.57520 35880 ft 468 kts 311°
2026-05-09 04:33 -1.50323 107.52590 35879 ft 468 kts 311°
2026-05-09 04:33 -1.46074 107.47661 35880 ft 468 kts 311°
2026-05-09 04:34 -1.41822 107.42728 35873 ft 469 kts 311°
2026-05-09 04:34 -1.37560 107.37784 35875 ft 470 kts 311°
2026-05-09 04:35 -1.33255 107.32864 35885 ft 471 kts 312°
2026-05-09 04:35 -1.28878 107.27955 35885 ft 473 kts 312°
2026-05-09 04:36 -1.24481 107.23024 35880 ft 475 kts 312°
2026-05-09 04:36 -1.20114 107.18110 35878 ft 476 kts 312°
2026-05-09 04:37 -1.15708 107.13146 35878 ft 477 kts 312°
2026-05-09 04:37 -1.11299 107.08178 35876 ft 478 kts 312°
2026-05-09 04:38 -1.06891 107.03212 35866 ft 478 kts 312°
2026-05-09 04:38 -1.02594 106.98372 35880 ft 478 kts 312°
2026-05-09 04:39 -0.98180 106.93400 35873 ft 479 kts 312°
2026-05-09 04:39 -0.93754 106.88416 35872 ft 479 kts 312°
2026-05-09 04:40 -0.89331 106.83434 35875 ft 480 kts 312°
2026-05-09 04:40 -0.84903 106.78447 35874 ft 480 kts 312°
2026-05-09 04:41 -0.80466 106.73450 35874 ft 480 kts 312°
2026-05-09 04:41 -0.76062 106.68489 35871 ft 480 kts 313°
2026-05-09 04:42 -0.71625 106.63492 35876 ft 480 kts 313°
2026-05-09 04:42 -0.67193 106.58501 35873 ft 480 kts 313°
2026-05-09 04:43 -0.62764 106.53513 35874 ft 479 kts 313°
2026-05-09 04:43 -0.58061 106.48831 35881 ft 477 kts 320°
2026-05-09 04:44 -0.53055 106.44474 35869 ft 476 kts 321°
2026-05-09 04:44 -0.48043 106.40131 35871 ft 476 kts 320°
2026-05-09 04:45 -0.43075 106.35757 35873 ft 476 kts 320°
2026-05-09 04:45 -0.38126 106.31362 35876 ft 475 kts 320°
2026-05-09 04:46 -0.33227 106.27006 35878 ft 474 kts 320°
2026-05-09 04:46 -0.28293 106.22620 35870 ft 474 kts 320°
2026-05-09 04:47 -0.23368 106.18245 35874 ft 472 kts 320°
2026-05-09 04:47 -0.18463 106.13888 35874 ft 471 kts 320°
2026-05-09 04:48 -0.13561 106.09534 35871 ft 471 kts 320°
2026-05-09 04:48 -0.08669 106.05189 35877 ft 470 kts 320°
2026-05-09 04:49 -0.03782 106.00849 35875 ft 470 kts 320°
2026-05-09 04:49 0.00940 105.96655 35894 ft 470 kts 320°
2026-05-09 04:50 0.05830 105.92312 35884 ft 470 kts 320°
2026-05-09 04:50 0.08249 105.90162 35859 ft 459 kts 320°
2026-05-09 04:50 0.10598 105.88073 35857 ft 444 kts 320°
2026-05-09 04:50 0.12869 105.86054 35851 ft 431 kts 320°
2026-05-09 04:51 0.15076 105.84092 35857 ft 417 kts 320°
2026-05-09 04:51 0.17210 105.82195 35853 ft 404 kts 320°
2026-05-09 04:51 0.19295 105.80343 35875 ft 400 kts 320°
2026-05-09 04:52 0.23515 105.76601 35896 ft 411 kts 320°
2026-05-09 04:52 0.27852 105.72752 35894 ft 422 kts 320°
2026-05-09 04:53 0.32272 105.68826 35883 ft 426 kts 320°
2026-05-09 04:53 0.35959 105.65550 35871 ft 425 kts 320°
2026-05-09 04:54 0.40321 105.61672 35868 ft 415 kts 320°
2026-05-09 04:54 0.44646 105.57830 35886 ft 417 kts 320°
2026-05-09 04:55 0.48989 105.53973 35884 ft 418 kts 320°
2026-05-09 04:55 0.53348 105.50101 35882 ft 420 kts 320°
2026-05-09 04:56 0.57721 105.46214 35882 ft 421 kts 320°
2026-05-09 04:56 0.62092 105.42306 35876 ft 423 kts 315°
2026-05-09 04:56 0.63802 105.39965 35885 ft 424 kts 296°
2026-05-09 04:57 0.64763 105.37182 35887 ft 425 kts 284°
2026-05-09 04:57 0.66128 105.31432 35881 ft 426 kts 283°
2026-05-09 04:58 0.67481 105.25671 35864 ft 427 kts 284°
2026-05-09 04:58 0.68885 105.19903 35877 ft 427 kts 284°
2026-05-09 04:59 0.70308 105.14137 35879 ft 427 kts 284°
2026-05-09 04:59 0.71733 105.08370 35875 ft 427 kts 284°
2026-05-09 05:00 0.73145 105.02651 35878 ft 427 kts 284°
2026-05-09 05:00 0.74526 104.97025 35872 ft 426 kts 281°
2026-05-09 05:00 0.74680 104.94085 35873 ft 424 kts 260°
2026-05-09 05:01 0.73860 104.91285 35891 ft 420 kts 242°
2026-05-09 05:01 0.72292 104.88839 35904 ft 416 kts 226°
2026-05-09 05:01 0.70144 104.86942 35902 ft 411 kts 212°
2026-05-09 05:02 0.65365 104.83793 35900 ft 412 kts 211°
2026-05-09 05:02 0.60881 104.80267 35869 ft 419 kts 234°
2026-05-09 05:02 0.59515 104.77708 35898 ft 421 kts 251°
2026-05-09 05:03 0.58973 104.74839 35913 ft 421 kts 265°
2026-05-09 05:03 0.58618 104.68964 35899 ft 425 kts 266°
2026-05-09 05:04 0.58269 104.63045 35888 ft 428 kts 266°
2026-05-09 05:04 0.57861 104.57084 35890 ft 431 kts 265°
2026-05-09 05:05 0.57441 104.51107 35888 ft 432 kts 265°
2026-05-09 05:05 0.57021 104.45108 35877 ft 432 kts 265°
2026-05-09 05:06 0.56603 104.39124 35877 ft 431 kts 265°